, AK

(GMT )
Northway

Weather History for PAOR - August, 2013

Change the Weather History Date:

Monday, August 12, 2013

  Actual Average Record
Temperature  
Mean Temperature 64 °F -  
Max Temperature 82 °F 68 °F 86 °F (1990)
Min Temperature 46 °F 43 °F 28 °F (1969)
Degree Days  
Heating Degree Days 1    
Growing Degree Days 14 (Base 50)    
Moisture  
Dew Point 50 °F    
Average Humidity 60    
Maximum Humidity 97    
Minimum Humidity 34    
Precipitation  
Precipitation 0.00 in - - ()
Sea Level Pressure  
Sea Level Pressure 29.95 in    
Wind  
Wind Speed 3 mph (NW)    
Max Wind Speed 7 mph    
Max Gust Speed -    
Visibility 5 miles    
Events Fog    
Averages and records for this station are not official NWS values.
T = Trace of Precipitation, MM = Missing Value Source: NWS Daily Summary

Daily Weather History Graph

Daily Weather History Graph

Search for Another Location

Airport or City:

Trip Planner

Search our weather history database for the weather conditions in past years. The results will help you decide how hot, cold, wet, or windy it might be!

Date:

Astronomy

Aug. 12, 2013 Rise Set
Actual Time 5:18 AM AKDT 9:44 PM AKDT
Civil Twilight 4:16 AM AKDT 10:46 PM AKDT
Nautical Twilight 2:00 AM AKDT 12:48 AM AKDT
Astronomical Twilight Sun does not set Sun does not set
Moon 1:40 PM AKDT (8/12) 10:16 PM AKDT (8/12)
Length of Visible Light 18h 30m
Length of Day
16h 25m
Waxing Crescent, 33% of the Moon is Illuminated
Aug 12
Waxing Crescent
Aug 14
First Quarter
Aug 20
Full
Aug 28
Last Quarter
Sep 5
New

Hourly Weather History & Observations

Time (AKDT) Temp. Heat Index Dew Point Humidity Pressure Visibility Wind Dir Wind Speed Gust Speed Precip Events Conditions
12:53 AM 57.0 °F - 50.0 °F 77% 29.93 in 10.0 mi WSW 4.6 mph - N/A   Scattered Clouds
1:53 AM 55.0 °F - 48.0 °F 77% 29.94 in 10.0 mi SW 3.5 mph - N/A   Scattered Clouds
2:53 AM 52.0 °F - 48.0 °F 86% 29.95 in 10.0 mi Calm Calm - N/A   Scattered Clouds
3:53 AM 50.0 °F - 46.9 °F 89% 29.96 in 10.0 mi Calm Calm - N/A   Scattered Clouds
4:53 AM 48.9 °F - 46.9 °F 93% 29.96 in 10.0 mi Calm Calm - N/A Fog Patches of Fog
5:53 AM 46.9 °F - 46.0 °F 97% 29.97 in 10.0 mi Calm Calm - N/A Fog Patches of Fog
6:53 AM 51.1 °F - 48.0 °F 89% 29.98 in 10.0 mi Calm Calm - N/A   Clear
7:49 AM 57.2 °F - 50.0 °F 77% 30.00 in 2.5 mi NNW 5.8 mph - N/A   Haze
7:53 AM 57.0 °F - 51.1 °F 81% 29.98 in 2.0 mi NNW 4.6 mph - N/A   Haze
8:09 AM 59.0 °F - 50.0 °F 72% 30.00 in 1.8 mi North 4.6 mph - N/A   Haze
8:53 AM 62.1 °F - 50.0 °F 65% 29.98 in 1.2 mi NW 5.8 mph - N/A   Haze
9:30 AM 62.6 °F - 50.0 °F 63% 30.00 in 1.0 mi NW 6.9 mph - N/A   Smoke
9:53 AM 64.0 °F - 50.0 °F 60% 29.99 in 1.2 mi NW 4.6 mph - N/A   Smoke
10:53 AM 68.0 °F - 51.1 °F 55% 29.98 in 1.5 mi NNW 6.9 mph - N/A   Smoke
11:53 AM 72.0 °F - 51.1 °F 48% 29.97 in 1.8 mi North 5.8 mph - N/A   Smoke
12:18 PM 73.4 °F - 51.8 °F 47% 29.99 in 2.0 mi NW 4.6 mph - N/A   Smoke
12:53 PM 75.0 °F - 51.1 °F 43% 29.96 in 2.0 mi NW 4.6 mph - N/A   Smoke
1:53 PM 77.0 °F - 51.1 °F 40% 29.95 in 2.5 mi Calm Calm - N/A   Smoke
2:26 PM 78.8 °F - 51.8 °F 39% 29.96 in 3.0 mi Calm Calm - N/A   Smoke
2:53 PM 80.1 °F - 51.1 °F 36% 29.94 in 5.0 mi Calm Calm - N/A   Smoke
3:53 PM 80.1 °F - 50.0 °F 35% 29.92 in 8.0 mi WNW 3.5 mph - N/A   Smoke
4:53 PM 82.0 °F - 51.1 °F 34% 29.91 in 7.0 mi SW 3.5 mph - N/A   Smoke
5:53 PM 82.0 °F 81.2 °F 53.1 °F 37% 29.91 in 7.0 mi Variable 3.5 mph - N/A   Smoke
6:53 PM 81.0 °F - 51.1 °F 35% 29.89 in 7.0 mi Calm Calm - N/A   Smoke
7:53 PM 78.1 °F - 52.0 °F 40% 29.88 in 7.0 mi WNW 3.5 mph - N/A   Smoke
8:53 PM 72.0 °F - 54.0 °F 53% 29.89 in 6.0 mi NW 3.5 mph - N/A   Smoke
9:53 PM 68.0 °F - 52.0 °F 56% 29.91 in 4.0 mi NW 4.6 mph - N/A   Smoke
10:53 PM 66.9 °F - 52.0 °F 59% 29.91 in 4.0 mi NW 5.8 mph - N/A   Smoke
11:53 PM 64.0 °F - 51.1 °F 63% 29.92 in 3.0 mi NW 3.5 mph - N/A   Smoke